STARLINK-32581, 62184

Orbit data source: Space-Track

STARLINK-32581, 62184 is a payload satellite owned by SpaceX/Seattle (US) in LEO that was launched on Sat, 30 Nov 2024 UTC via an FALCON 9 launch vehicle from the Air Force Western Test Range (AFWTR). Payload-class satellites include a variety of spacecraft equipped with specific instruments for various scientific and technological missions. These include communications satellites like Starlink; space stations such as the ISS; scientific satellites like the Hubble; Earth observation satellites from companies like Planet Labs, Umbra, and HawkEye 360; GPS; miniature CubeSats for education and research; and military/defense satellites.

Loading next visibility...
Identifier
62184, 2024-225X
Orbit
LEO
Country
Flag of USUS
Related business
Manufacturer
SpaceX/Seattle
Mission
Operational Commercial Communications
Bus & Motor
STARLINK V2M, Unknown motor
Mass
730 kg wet, ~700 kg dry
Launch date (UTC)
2024-11-30 (2 years ago)
Launch vehicle
FALCON 9
Launch site
Air Force Western Test Range (AFWTR)
Object type
Payload
Rocket body
Debris
Shape & HBR
Box + 2 Pan, 17.7 m
Radar Cross Section
33.884 m², Large (>1 m²)

Expand to show TLE details & history
Last TLE update: 9 hours ago

TLE from 9 hours ago
0 STARLINK-32581
1 62184U 24225X   26171.47678486  .00001731  00000-0  15278-3 0  9991
2 62184  70.0007 255.2007 0003427 269.3575  90.7191 14.98334518 85524
Epoch: 2026-06-20T11:26Z
TLE epoch observation values (Epoch: 2026-06-20T11:26:34.211Z)
Latitude
-0.00009°
Longitude
174.86727°
Altitude
574.497 km
Speed
7.574 km/s
True Right ascension
17h 00m 48s
True Declination
0° 00' 00"
Sunlit
Object was in full shadow at epoch
Visualization orbit readout
Latitude
Unknown
Longitude
Unknown
Altitude
Unknown
Speed
Unknown
Apparent Right ascension
Unknown
Apparent Declination
Unknown
Sunlit
N/A
Visualization observer readout
Local Sidereal Time
07:24:41
Azimuth
Unknown
Elevation
Unknown
Doppler factor
Unknown
Orbital elements
Apogee altitude
572.371 km
Perigee altitude
567.609 km
Semi-major axis
6,948.127 km
Eccentricity
0.00034
Inclination
70.0007°
RAAN
255.2007°
Arg. of periapsis
269.3575°
True anomaly
90.75837°
Mean anomaly
90.7191°
Eccentric anomaly
90.73873°
Mean motion
3.7475 °/min
Orbital period
96.06 mins
BSTAR
0.00015278
Loading maneuver chart data...
Computing Atmospheric mass density...
Loading historical data...
Loading historical data...
Loading historical data...
Loading historical data...
Loading historical data...
Loading historical data...
Loading historical data...

Documentation

Showing up to 5 results
|